Tracking 19484 objects as of 19-Jan-2019
HD Live streaming from Space Station
objects crossing your sky now

MOLNIYA 1-63

Track MOLNIYA 1-63 now!
MOLNIYA 1-63 is classified as:


NORAD ID: 15429
Int'l Code: 1984-124A
Perigee: 2,127.4 km
Apogee: 38,251.6 km
Inclination: 63.9 °
Period: 718.0 minutes
Semi major axis: 26560 km
RCS: 15.7385 m2 (large)
Launch date: December 14, 1984
Source: Commonwealth of Independent States (former USSR) (CIS)
Launch site: PLESETSK MISSILE AND SPACE COMPLEX (PKMTR)
aabbcc
Your satellite tracking list
Your tracking list is empty




NASA's NSSDC Master Catalog

Two Line Element Set (TLE):
1 15429U 84124A   19017.29563887 +.00001351 +00000-0 +00000-0 0  9996
2 15429 063.9046 288.0157 6800359 269.8716 298.9990 02.00561650249738
Source of the keplerian elements: AFSPC